Home > Weather > Tórshavn > Past weeks

Flag for Faroe Islands Weather for the Past 2 Weeks in Tórshavn, Faroe Islands

Now
43 °F

Passing clouds.


Feels Like: 34 °F
Forecast: 42 / 47 °F
Wind: 20 mph from West

Location: Soervaag / Vagar

Current Time: May 1, 2016 at 5:52:44 AM

Latest Report: May 1, 2016 at 5:20 AM


Visibility: N/A

Pressure: 29.50 "Hg

Humidity: 76%

Dew Point: 36 °F

Location of TórshavnLocation

Historic Weather in Tórshavn — Graph

°F

Tórshavn Temperature Yesterday

Maximum temperature yesterday: 45 °F (at 2:20 PM)
Minimum temperature yesterday: 37 °F (at 1:20 AM)
Average temperature yesterday: 41 °F

High & Low Weather Summary for the Past Weeks

 TemperatureHumidityPressure
High46 °F (Apr 20, 12:52 PM)100% (Apr 27, 4:50 PM)30.45 "Hg (Apr 27, 4:50 PM)
Low30 °F (Apr 26, 3:50 AM)52% (Apr 25, 12:20 AM)29.18 "Hg (Apr 18, 2:20 AM)
Average38 °F75%29.98 "Hg
* Reported Apr 16 4:20 AM — May 1 4:20 AM, Tórshavn, Weather by CustomWeather, © 2016

Note: Actual official high and low records may vary slightly from our data, if they occured in-between our weather recording intervals... More about our weather records

Advertising

Tórshavn Weather History for the Previous 24 Hours

Scroll right to see more
 ConditionsComfort  
Time TempWeatherWind HumidityBarometerVisibility
4:20 AM
Sun, May 1
43 °FLight rain. Passing clouds.33 mph93%29.50 "Hg2 mi
3:20 AM41 °FLight rain. Passing clouds.31 mph93%29.56 "Hg5 mi
2:50 AM41 °FLight rain. Passing clouds.31 mph93%29.59 "HgN/A
2:20 AM41 °FLight rain. Passing clouds.25 mph93%29.59 "HgN/A
1:50 AM41 °FLight rain. Passing clouds.23 mph93%29.62 "HgN/A
1:20 AM41 °FSprinkles. Passing clouds.23 mph87%29.65 "HgN/A
12:50 AM41 °FSprinkles. Passing clouds.24 mph87%29.68 "HgN/A
12:20 AM41 °FSprinkles. Passing clouds.24 mph87%29.68 "HgN/A
11:50 PM
Sat, Apr 30
41 °FRain. Passing clouds.18 mph81%29.68 "HgN/A
11:20 PM41 °FLight rain. Overcast.22 mph81%29.71 "HgN/A
10:50 PM43 °FLight rain. Passing clouds.17 mph76%29.71 "HgN/A
10:20 PM43 °FPartly sunny.15 mph76%29.71 "HgN/A
9:50 PM41 °FPartly sunny.14 mph87%29.74 "HgN/A
9:20 PM41 °FBroken clouds.14 mph81%29.74 "HgN/A
8:50 PM41 °FPartly sunny.14 mph81%29.74 "HgN/A
8:20 PM41 °FPartly sunny.13 mph76%29.74 "HgN/A
7:50 PM41 °FPartly sunny.16 mph81%29.74 "HgN/A
7:20 PM41 °FPartly sunny.7 mph87%29.77 "HgN/A
6:50 PM39 °FSprinkles. Partly sunny.9 mph87%29.77 "HgN/A
6:20 PM41 °FPartly sunny.8 mph76%29.77 "HgN/A
5:50 PM41 °FPartly sunny.15 mph76%29.77 "HgN/A
5:20 PM41 °FSprinkles. Partly sunny.13 mph81%29.77 "HgN/A
4:50 PM43 °FPartly sunny.15 mph76%29.77 "HgN/A
4:20 PM43 °FPartly sunny.13 mph71%29.77 "HgN/A
3:50 PM43 °FPartly sunny.10 mph76%29.77 "HgN/A
3:20 PM43 °FPartly sunny.13 mph76%29.77 "HgN/A
2:50 PM43 °FBroken clouds.13 mph76%29.77 "HgN/A
2:20 PM45 °FPartly sunny.12 mph66%29.77 "HgN/A
1:50 PM41 °FPartly sunny.9 mph81%29.77 "HgN/A
1:20 PM41 °FSprinkles. Partly sunny.10 mph81%29.77 "HgN/A
12:50 PM41 °FPartly sunny.8 mph76%29.77 "HgN/A
12:20 PM43 °FPartly sunny.9 mph76%29.74 "HgN/A
11:50 AM41 °FSprinkles. Partly sunny.12 mph81%29.74 "HgN/A
11:20 AM39 °FBroken clouds.10 mph87%29.74 "HgN/A
10:50 AM41 °FBroken clouds.5 mph81%29.74 "HgN/A
10:20 AM39 °FPartly sunny.10 mph87%29.74 "HgN/A
9:20 AM41 °FPartly sunny.8 mph81%29.74 "HgN/A
8:50 AM41 °FPartly sunny.7 mph81%29.74 "HgN/A
8:20 AM39 °FBroken clouds.9 mph87%29.74 "HgN/A
7:50 AM39 °FSprinkles. Partly sunny.12 mph75%29.71 "HgN/A
7:20 AM39 °FBroken clouds.16 mph81%29.71 "HgN/A
6:50 AM39 °FBroken clouds.13 mph81%29.71 "HgN/A
6:20 AM41 °FPartly sunny.16 mph70%29.71 "HgN/A
5:50 AM39 °FPartly cloudy.18 mph75%29.71 "HgN/A
5:20 AM39 °FPassing clouds.15 mph70%29.71 "HgN/A
Weather by CustomWeather, © 2016

See weather overviewHow to use our weather pages